Tracking 31027 objects as of 19-Jul-2025
HD Live streaming from Space Station
objects crossing your sky now

FENGYUN 1C DEB

Track FENGYUN 1C DEB now!
10-day predictions


NORAD ID: 36680
Int'l Code: 1999-025DZA
Perigee: 702.0 km
Apogee: 975.6 km
Inclination: 98.5 °
Period: 101.5 minutes
Semi major axis: 7209 km
RCS: 0.0016 m2 (small)
Launch date: May 10, 1999
Source: People's Republic of China (PRC)
Launch site: Taiyaun Space Center, China (TSC)

Note: This is SATELLITE DEBRIS
Your satellite tracking list
COSMOS 1275 DEB
Track 1 satellite(s)




NASA's NSSDC Master Catalog

Two Line Element Set (TLE):
1 36680U 99025DZA 25198.46232209  .00000711  00000-0  30802-3 0  9996
2 36680  98.5379 195.9495 0189748 318.2018 196.1632 14.18146266819081
Source of the keplerian elements: AFSPC